Theta_e
343 331 333 330 330 331 330 334 333 333 334 335 335 333 334 334 335 334 335 337 331 332 334 337 336 332 329 327 326 327 327 327 327 329 331 330 339 341 342 344 339 337 335
343 329 329 330 331 331 330 334 333 332 333 332 334 335 336 337 337 336 335 334 331 330 329 332 332 330 338 330 329 326 329 336 336 330 326 327 335 341 344 344 330 331 329
343 329 329 329 331 331 331 332 333 332 331 333 332 332 333 333 333 335 335 332 330 328 327 329 330 329 328 325 324 324 326 330 342 343 336 327 331 333 340 331 330 331 334
345 335 331 330 331 331 331 331 331 332 332 331 330 330 331 332 332 333 333 331 330 330 329 329 330 329 328 327 323 322 323 342 343 342 345 337 330 334 332 327 327 327 327
349 349 340 338 333 330 331 331 331 331 331 331 331 331 331 332 331 330 329 328 328 329 328 329 332 333 329 328 327 323 324 340 342 344 343 340 326 326 327 329 337 331 326
351 351 344 343 335 332 335 331 333 333 333 333 332 332 332 331 330 329 330 336 337 339 343 338 330 334 339 332 329 327 324 338 342 342 342 341 334 327 329 343 340 333 327
353 346 343 342 338 333 334 337 338 337 338 340 340 338 335 334 332 334 337 338 338 336 337 342 340 336 339 339 334 331 332 342 344 342 340 342 341 327 338 336 329 330 328
352 345 342 341 337 336 334 335 336 339 340 340 339 338 337 334 332 334 336 339 336 337 336 339 340 338 338 338 339 338 334 344 343 343 340 342 339 325 333 333 326 330 328
351 347 340 342 341 341 341 341 340 340 340 340 339 337 335 332 331 332 338 337 337 340 338 336 335 337 337 337 338 337 338 338 346 345 345 345 343 336 331 338 326 331 334
352 347 344 346 345 343 341 341 341 340 339 339 339 336 331 330 334 335 338 337 337 335 337 331 332 336 337 337 337 338 339 337 344 344 346 346 344 336 327 327 326 334 332
351 348 350 346 344 341 334 334 336 335 332 337 336 332 328 335 339 342 341 343 339 335 339 337 330 333 336 337 337 338 337 337 345 343 347 344 342 338 326 327 329 328 332
349 347 347 349 346 339 331 336 331 331 334 335 332 331 332 338 334 333 338 344 338 339 339 337 332 333 336 342 339 336 338 339 338 345 343 345 341 332 333 334 336 337 332
348 347 347 347 345 346 342 332 335 333 339 341 337 334 331 333 337 337 344 341 336 339 342 344 332 335 345 346 344 345 340 344 342 342 345 344 342 335 333 335 335 336 336
347 348 348 347 347 346 343 332 333 332 340 341 338 337 332 334 345 346 346 342 339 343 345 345 346 346 343 344 339 345 342 345 344 335 342 344 342 337 332 335 337 335 333
348 348 346 347 346 343 344 335 339 340 340 340 340 340 338 340 345 346 344 343 341 346 345 346 347 345 345 343 342 342 344 343 338 346 347 344 336 335 337 339 340 340 336
349 348 347 348 346 345 343 339 341 340 342 341 339 339 339 345 345 347 343 341 341 345 346 345 346 346 345 343 342 343 343 344 344 346 347 346 342 339 337 338 340 339 337
349 350 349 348 349 346 345 343 341 340 343 343 344 344 344 345 347 344 344 340 338 347 346 346 345 345 343 342 345 342 344 344 343 343 345 347 346 344 345 343 342 338 332
351 350 351 351 349 349 346 344 344 340 345 345 345 345 345 344 347 344 339 341 339 342 346 344 345 345 342 344 343 345 343 343 344 345 341 338 345 348 347 349 345 339 331
350 351 350 352 350 349 349 348 346 343 347 345 346 345 345 346 343 340 339 338 345 342 345 346 347 345 346 346 344 345 347 344 345 346 346 346 343 348 347 350 349 345 335
351 352 352 351 351 351 350 348 351 348 347 347 346 345 347 346 347 345 343 343 343 346 347 346 346 346 343 346 349 344 346 348 347 347 348 348 345 346 348 346 349 345 332
352 353 352 353 352 352 351 351 350 348 348 348 347 348 347 348 348 346 343 347 342 345 347 347 349 347 338 347 348 346 347 345 348 348 348 346 347 346 347 345 345 346 349
353 353 354 354 354 353 353 352 351 350 347 347 351 351 350 350 346 348 343 348 348 343 343 346 346 343 342 342 346 346 344 335 343 345 349 348 348 348 348 348 347 346 349
352 354 356 356 355 350 355 353 352 352 351 351 343 350 346 344 344 346 347 345 350 348 344 343 344 346 346 341 340 339 345 342 334 343 347 348 348 348 350 350 348 348 347
354 355 355 356 357 351 348 355 353 351 347 349 350 349 348 351 347 348 346 341 346 348 343 344 347 348 348 342 342 342 342 348 347 348 348 347 345 348 347 349 350 350 350
352 355 356 357 357 357 354 349 354 353 352 353 352 352 350 353 350 350 349 347 346 342 348 343 350 350 347 344 342 340 341 345 347 348 346 346 346 348 349 349 349 349 350
353 355 356 357 358 355 357 351 350 353 352 351 351 351 352 352 351 349 347 348 347 346 347 348 346 341 345 339 341 337 338 337 347 338 344 340 339 348 348 347 348 349 349
Wind_Speed
20 24 22 22 22 22 27 27 26 24 23 21 21 20 18 18 17 16 16 15 15 15 16 16 13 12 14 15 15 16 16 17 17 18 20 22 23 24 22 19 15 19 19
24 25 23 22 22 22 25 25 23 21 19 17 17 17 15 16 15 13 13 13 13 13 14 12 12 12 12 13 14 15 16 18 18 16 17 19 20 20 19 17 13 16 16
25 26 24 22 21 21 22 22 21 16 14 13 12 12 11 11 11 10 10 11 10 10 10 10 10 11 11 11 12 14 16 19 22 22 15 14 16 17 17 12 14 15 15
24 24 24 22 20 19 19 18 17 14 11 10 10 9 8 7 6 7 7 7 7 7 7 7 7 8 9 9 10 13 17 20 18 14 12 8 12 15 14 13 14 13 12
21 20 23 22 20 20 19 17 16 13 11 9 9 8 7 5 4 3 3 2 2 3 4 5 5 5 7 8 10 13 18 18 16 14 17 4 8 14 14 13 12 11 11
25 21 23 21 20 20 17 17 14 12 11 8 7 6 5 3 2 0 0 1 1 2 3 4 6 6 7 7 11 14 17 17 16 13 8 7 6 11 12 13 9 8 8
22 15 22 21 20 19 17 15 12 8 8 6 4 3 2 1 1 2 2 3 3 3 4 5 6 7 7 7 8 10 11 16 13 13 11 11 9 7 9 10 8 7 6
21 20 21 20 19 18 16 15 11 9 9 7 4 2 2 2 3 3 4 4 4 4 4 5 5 7 8 10 10 10 10 14 14 10 10 13 6 8 9 7 6 7 5
24 20 20 20 19 17 15 14 13 11 9 8 5 5 3 4 5 6 6 6 4 4 4 5 5 6 8 9 11 10 9 13 15 10 10 15 9 6 7 7 6 6 5
24 14 20 16 16 16 16 13 12 11 10 9 9 8 5 5 7 8 8 7 5 5 5 4 4 5 6 7 9 9 8 12 16 15 4 11 10 8 8 6 5 5 4
17 17 18 15 14 15 16 12 10 12 12 8 8 7 7 6 11 15 9 8 5 5 6 4 4 5 4 5 4 3 7 11 14 10 8 16 9 7 8 6 5 5 5
19 18 16 20 17 15 14 11 13 12 16 17 13 10 9 6 10 12 15 7 6 6 6 4 3 4 5 3 2 4 6 9 10 15 15 11 9 8 7 5 6 6 6
17 20 18 18 15 16 13 11 11 9 9 14 15 21 16 9 15 22 11 5 6 6 5 3 4 3 2 10 12 5 8 21 3 12 9 13 12 13 10 7 6 7 7
20 18 19 13 16 15 14 16 7 10 10 5 7 11 18 10 7 3 15 7 6 9 5 4 4 7 6 10 5 6 6 13 13 11 10 14 12 14 12 7 6 7 8
21 19 19 18 15 15 16 14 7 5 5 2 7 9 9 7 2 0 5 6 6 8 3 5 3 7 5 7 3 5 5 8 6 8 11 10 7 8 8 6 7 8 9
20 17 16 18 16 13 12 10 8 3 3 3 9 12 11 6 2 4 9 8 6 1 4 2 5 7 10 9 10 10 9 11 7 8 9 10 5 5 6 7 8 9 10
15 13 18 16 12 12 12 10 9 5 3 3 5 4 7 5 5 12 9 8 8 3 4 6 4 9 6 9 10 9 8 10 11 10 15 12 11 10 8 5 7 7 9
17 11 14 15 9 7 8 8 8 7 5 2 5 7 8 7 9 12 10 8 6 10 9 7 4 6 5 9 10 10 9 9 10 12 12 12 13 11 10 10 6 5 7
18 15 14 14 10 8 6 7 5 8 5 7 9 10 10 11 12 12 10 11 6 7 12 9 12 11 10 12 10 11 12 11 10 12 9 10 13 13 12 9 11 6 6
16 17 14 14 11 11 11 8 8 8 8 5 4 9 11 11 11 13 11 8 5 6 10 12 13 13 15 11 9 5 11 9 13 16 17 14 10 10 12 12 10 7 5
15 18 16 16 16 16 14 12 13 10 10 11 5 5 11 11 11 14 11 9 7 10 14 13 5 11 10 10 10 7 16 16 15 16 15 17 18 16 15 13 12 9 8
20 17 18 19 18 19 13 13 9 8 7 23 10 7 9 13 16 15 13 12 12 10 12 13 11 10 7 9 6 7 9 12 15 19 17 18 15 16 14 21 14 10 12
21 20 19 18 18 14 15 12 11 10 8 8 10 12 13 11 12 13 18 15 15 14 12 10 9 9 7 9 9 9 3 9 14 13 17 19 18 19 17 19 19 16 16
20 17 20 18 19 14 14 13 11 11 8 11 7 4 8 9 11 16 16 15 16 16 11 10 6 8 10 11 9 12 14 15 15 4 6 14 17 18 19 14 16 16 18
19 18 19 18 18 16 13 13 13 11 9 6 10 8 6 12 15 16 15 13 18 14 13 9 11 12 14 13 12 15 14 16 7 17 14 11 18 17 18 18 19 18 15
19 18 18 19 18 16 18 13 13 14 13 7 8 10 7 13 15 10 13 13 13 17 17 16 11 18 19 17 17 13 9 15 8 10 5 13 23 17 16 17 15 18 15
Wind_Direction
150 145 139 136 136 138 144 139 130 122 117 115 113 110 108 107 104 100 94 89 87 85 89 96 98 89 100 108 114 113 112 111 109 107 108 106 105 102 93 86 102 101 101
149 147 144 143 140 141 151 148 142 130 122 117 112 111 109 105 103 99 95 92 91 94 93 97 99 97 103 107 110 113 109 98 89 91 106 111 112 114 115 126 105 102 100
145 150 146 147 143 143 153 155 154 147 134 129 124 122 117 110 106 101 100 100 101 99 98 102 102 101 104 113 111 112 109 99 100 87 77 108 115 118 120 126 107 104 102
146 146 149 148 147 146 150 158 162 158 149 142 139 140 136 121 113 106 107 105 106 110 115 116 117 114 112 115 119 117 115 114 112 118 110 86 118 118 117 109 104 100 98
142 146 154 150 152 149 148 153 154 150 145 147 150 146 142 130 108 96 107 103 105 139 150 153 152 143 132 134 131 129 128 120 105 101 124 206 131 125 119 110 105 102 85
141 164 158 156 153 154 149 147 150 144 140 141 142 141 135 127 109 83 266 152 216 201 180 180 180 174 164 147 141 129 136 128 113 98 142 151 150 136 130 115 121 107 101
143 159 152 154 156 160 162 160 159 163 166 161 156 146 157 217 284 329 312 302 273 227 210 201 192 185 183 168 170 157 142 140 129 137 159 198 196 163 139 137 134 129 111
145 148 155 155 159 161 168 174 175 176 178 186 171 173 229 253 279 289 287 273 257 229 212 205 200 194 188 186 189 180 163 155 131 167 176 209 197 197 155 153 146 139 129
144 158 160 159 165 170 176 182 187 189 194 197 202 221 225 253 269 286 277 264 235 236 224 219 207 198 197 200 197 200 186 176 166 176 201 198 208 233 190 171 163 158 158
152 160 141 164 159 172 175 187 200 203 213 209 202 215 226 285 299 279 267 254 233 247 247 228 213 205 203 207 206 205 192 182 173 178 223 198 211 213 208 188 186 186 192
145 151 155 155 177 180 178 191 210 210 234 232 217 217 220 241 264 271 243 234 251 255 250 239 206 211 197 187 185 207 213 179 185 206 252 212 214 250 219 197 210 221 218
153 155 169 177 182 197 189 209 224 233 254 258 237 227 226 253 279 280 220 230 256 266 253 243 205 198 194 167 154 172 187 187 222 225 230 213 225 239 208 223 239 240 234
159 161 165 183 199 208 231 233 229 240 280 251 246 239 234 229 248 204 144 199 252 260 247 282 149 138 322 236 185 180 219 223 220 205 202 215 229 238 240 247 242 246 245
160 161 175 200 206 221 225 233 254 257 279 223 209 232 229 245 270 253 179 240 292 242 194 160 164 202 216 238 262 169 274 204 201 174 186 206 244 231 233 228 239 248 249
156 168 178 190 225 218 228 232 233 295 243 210 183 197 190 215 310 276 212 277 242 252 191 185 220 213 224 247 212 226 263 261 214 208 205 192 213 224 222 242 254 262 256
169 178 180 202 224 239 227 220 224 338 237 181 165 171 182 170 334 222 266 254 248 0 182 199 229 205 208 193 203 204 227 225 248 262 206 204 231 272 265 272 272 270 259
193 171 183 207 221 229 235 215 225 226 162 170 174 196 166 183 229 254 265 283 238 269 285 250 241 228 192 215 209 243 215 225 205 229 209 245 255 264 267 278 263 262 256
171 190 182 188 207 227 238 225 240 243 223 222 221 213 207 217 238 251 254 250 243 228 235 211 247 237 224 246 234 225 257 230 246 224 242 216 255 275 252 248 272 250 259
174 177 184 189 211 218 226 252 236 204 242 260 228 227 234 230 239 236 248 246 261 218 198 235 251 234 238 254 263 251 271 269 250 250 254 246 227 233 260 223 271 275 269
179 167 185 193 191 208 215 232 231 247 253 240 240 201 204 217 250 253 261 252 239 193 196 229 214 227 242 246 284 296 237 247 258 251 250 248 241 235 242 260 253 291 240
173 179 188 184 198 196 214 223 221 239 254 259 269 206 219 209 229 249 261 261 245 212 206 212 217 240 227 221 273 270 268 230 242 230 242 238 238 235 240 243 245 262 247
180 191 195 194 208 214 214 227 227 219 217 240 234 252 206 237 225 229 242 240 255 234 220 220 225 241 235 236 264 297 331 269 261 226 214 240 239 240 226 238 234 242 245
185 191 202 205 214 217 197 234 235 230 227 183 238 230 241 236 248 223 233 227 237 249 236 236 241 234 228 241 249 263 180 210 250 248 218 222 230 228 223 229 228 231 236
183 187 204 211 212 224 205 210 243 253 238 226 258 216 229 253 231 235 240 234 227 242 244 232 248 238 244 243 248 249 251 257 244 328 207 202 219 226 225 218 233 238 234
180 186 200 215 215 209 237 219 232 266 268 284 269 245 225 236 249 240 234 228 226 235 235 247 234 240 245 250 247 251 260 259 302 282 277 220 203 210 222 223 230 240 238
176 184 192 211 218 213 226 231 223 239 253 266 258 232 277 277 284 254 237 238 224 228 226 232 244 253 256 257 251 248 262 257 275 206 264 297 239 224 223 216 221 228 229